GTI974 KJFK-KRDU

Flight info

Callsign GTI974
Flight time 1h 7m
Altitude 36000
Route WAVEY EMJAY Q167 ZJAAY TAQLE3
Aircraft B748/H-SDE3FGHIM1M2RWXY/LB1

Departure

Time 2026-05-06 21:26
Airport John F. Kennedy International Airport (KJFK)

Arrival

Time 2026-05-06 22:33
Airport Raleigh-Durham International Airport (KRDU)
Time Latitude Longitude Altitude Speed Heading
2026-05-06 21:02 40.64976 -73.80664 29 ft 0 kts 332°
2026-05-06 21:15 40.64959 -73.80653 29 ft 4 kts 332°
2026-05-06 21:15 40.64935 -73.80637 28 ft 4 kts 332°
2026-05-06 21:15 40.64911 -73.80620 28 ft 4 kts 331°
2026-05-06 21:15 40.64888 -73.80602 27 ft 4 kts 329°
2026-05-06 21:16 40.64865 -73.80585 28 ft 3 kts 329°
2026-05-06 21:16 40.64858 -73.80579 28 ft 0 kts 329°
2026-05-06 21:20 40.64862 -73.80583 28 ft 3 kts 318°
2026-05-06 21:20 40.64863 -73.80604 30 ft 4 kts 260°
2026-05-06 21:20 40.64800 -73.80680 30 ft 12 kts 210°
2026-05-06 21:20 40.64778 -73.80692 30 ft 1 kts 201°
2026-05-06 21:21 40.64771 -73.80695 30 ft 1 kts 201°
2026-05-06 21:21 40.64765 -73.80698 30 ft 1 kts 201°
2026-05-06 21:21 40.64759 -73.80701 30 ft 1 kts 201°
2026-05-06 21:21 40.64747 -73.80710 30 ft 3 kts 212°
2026-05-06 21:22 40.64718 -73.80735 30 ft 3 kts 222°
2026-05-06 21:22 40.64712 -73.80761 30 ft 3 kts 265°
2026-05-06 21:22 40.64727 -73.80824 30 ft 11 kts 301°
2026-05-06 21:22 40.64778 -73.80933 30 ft 15 kts 300°
2026-05-06 21:23 40.64831 -73.81053 30 ft 15 kts 300°
2026-05-06 21:23 40.64883 -73.81170 30 ft 15 kts 300°
2026-05-06 21:23 40.64932 -73.81283 30 ft 13 kts 303°
2026-05-06 21:23 40.64969 -73.81379 30 ft 9 kts 281°
2026-05-06 21:24 40.64956 -73.81419 30 ft 4 kts 219°
2026-05-06 21:24 40.64914 -73.81458 30 ft 11 kts 213°
2026-05-06 21:24 40.64847 -73.81510 31 ft 10 kts 207°
2026-05-06 21:24 40.64790 -73.81541 32 ft 8 kts 186°
2026-05-06 21:25 40.64770 -73.81527 33 ft 2 kts 128°
2026-05-06 21:25 40.64756 -73.81494 33 ft 5 kts 119°
2026-05-06 21:25 40.64742 -73.81461 34 ft 4 kts 119°
2026-05-06 21:25 40.64705 -73.81377 34 ft 38 kts 121°
2026-05-06 21:26 40.64405 -73.80724 32 ft 128 kts 121°
2026-05-06 21:26 40.63810 -73.79451 244 ft 186 kts 123°
2026-05-06 21:26 40.63089 -73.77929 801 ft 211 kts 135°
2026-05-06 21:26 40.61772 -73.76968 1117 ft 219 kts 167°
2026-05-06 21:27 40.60275 -73.76312 1814 ft 229 kts 165°
2026-05-06 21:27 40.58822 -73.75341 2238 ft 248 kts 152°
2026-05-06 21:27 40.57403 -73.73891 2630 ft 264 kts 145°
2026-05-06 21:27 40.55961 -73.72283 3191 ft 271 kts 147°
2026-05-06 21:28 40.54480 -73.70756 4165 ft 272 kts 149°
2026-05-06 21:28 40.53471 -73.69749 4780 ft 276 kts 148°
2026-05-06 21:28 40.51923 -73.68202 5603 ft 284 kts 148°
2026-05-06 21:28 40.50344 -73.66599 6389 ft 291 kts 149°
2026-05-06 21:29 40.48208 -73.64416 7427 ft 294 kts 150°
2026-05-06 21:29 40.46586 -73.62773 8235 ft 296 kts 151°
2026-05-06 21:29 40.45482 -73.61659 8768 ft 298 kts 151°
2026-05-06 21:29 40.43837 -73.59995 9574 ft 300 kts 152°
2026-05-06 21:30 40.42172 -73.58311 10283 ft 305 kts 152°
2026-05-06 21:30 40.40453 -73.56579 10811 ft 319 kts 152°
2026-05-06 21:30 40.38655 -73.54766 11283 ft 335 kts 151°
2026-05-06 21:30 40.36753 -73.52848 11659 ft 354 kts 151°
2026-05-06 21:31 40.34777 -73.50852 11961 ft 373 kts 150°
2026-05-06 21:31 40.32644 -73.48697 12243 ft 392 kts 150°
2026-05-06 21:31 40.30458 -73.46493 12598 ft 409 kts 149°
2026-05-06 21:31 40.28176 -73.44191 13234 ft 419 kts 149°
2026-05-06 21:32 40.25847 -73.41843 13942 ft 426 kts 149°
2026-05-06 21:32 40.21028 -73.37165 15280 ft 437 kts 151°
2026-05-06 21:32 40.18543 -73.34841 15947 ft 443 kts 151°
2026-05-06 21:33 40.16029 -73.32473 16603 ft 448 kts 150°
2026-05-06 21:33 40.13477 -73.30077 17257 ft 454 kts 150°
2026-05-06 21:33 40.10862 -73.27739 17853 ft 454 kts 156°
2026-05-06 21:33 40.07996 -73.26100 18432 ft 448 kts 170°
2026-05-06 21:34 40.04964 -73.25335 18972 ft 441 kts 182°
2026-05-06 21:34 40.01928 -73.25459 19524 ft 434 kts 195°
2026-05-06 21:34 39.99402 -73.26269 20005 ft 428 kts 206°
2026-05-06 21:34 39.96748 -73.27960 20563 ft 422 kts 219°
2026-05-06 21:35 39.94502 -73.30368 21144 ft 416 kts 232°
2026-05-06 21:35 39.92780 -73.33346 21723 ft 411 kts 244°
2026-05-06 21:35 39.91513 -73.36672 22267 ft 411 kts 249°
2026-05-06 21:35 39.90355 -73.40096 22841 ft 413 kts 249°
2026-05-06 21:36 39.89131 -73.43500 23410 ft 417 kts 247°
2026-05-06 21:36 39.87766 -73.46842 23876 ft 421 kts 244°
2026-05-06 21:36 39.86223 -73.50108 24331 ft 425 kts 241°
2026-05-06 21:36 39.84497 -73.53256 24783 ft 430 kts 238°
2026-05-06 21:37 39.82571 -73.56251 25236 ft 436 kts 233°
2026-05-06 21:37 39.80340 -73.58963 25688 ft 444 kts 227°
2026-05-06 21:37 39.77898 -73.61481 26131 ft 448 kts 225°
2026-05-06 21:37 39.75406 -73.63928 26547 ft 450 kts 225°
2026-05-06 21:38 39.73006 -73.66527 26945 ft 448 kts 229°
2026-05-06 21:38 39.70705 -73.69248 27380 ft 449 kts 229°
2026-05-06 21:38 39.68345 -73.71932 27823 ft 453 kts 227°
2026-05-06 21:38 39.65923 -73.74526 28540 ft 449 kts 227°
2026-05-06 21:39 39.63541 -73.77108 29250 ft 445 kts 228°
2026-05-06 21:39 39.61203 -73.79731 29980 ft 442 kts 229°
2026-05-06 21:39 39.58879 -73.82334 30621 ft 439 kts 229°
2026-05-06 21:39 39.56564 -73.84875 31248 ft 437 kts 229°
2026-05-06 21:40 39.54240 -73.87414 31874 ft 434 kts 229°
2026-05-06 21:40 39.51950 -73.89939 32495 ft 431 kts 230°
2026-05-06 21:40 39.49686 -73.92443 33095 ft 428 kts 230°
2026-05-06 21:40 39.47418 -73.94937 33695 ft 426 kts 230°
2026-05-06 21:41 39.45168 -73.97401 34231 ft 423 kts 230°
2026-05-06 21:41 39.42924 -73.99862 34713 ft 421 kts 230°
2026-05-06 21:41 39.40693 -74.02312 35215 ft 419 kts 230°
2026-05-06 21:41 39.38475 -74.04741 35649 ft 417 kts 230°
2026-05-06 21:42 39.36269 -74.07149 35865 ft 415 kts 230°
2026-05-06 21:42 39.34060 -74.09570 35865 ft 423 kts 230°
2026-05-06 21:42 39.29528 -74.14510 35870 ft 426 kts 230°
2026-05-06 21:43 39.24999 -74.19441 35871 ft 426 kts 230°
2026-05-06 21:43 39.20469 -74.24367 35870 ft 426 kts 230°
2026-05-06 21:44 39.15924 -74.29300 35878 ft 429 kts 230°
2026-05-06 21:44 39.11366 -74.34236 35877 ft 429 kts 230°
2026-05-06 21:45 39.06794 -74.39177 35880 ft 427 kts 230°
2026-05-06 21:45 39.02235 -74.44103 35884 ft 427 kts 230°
2026-05-06 21:46 38.97707 -74.48980 35887 ft 428 kts 230°
2026-05-06 21:46 38.93126 -74.53998 35892 ft 427 kts 232°
2026-05-06 21:47 38.88739 -74.59151 35888 ft 427 kts 231°
2026-05-06 21:47 38.84378 -74.64246 35889 ft 427 kts 232°
2026-05-06 21:48 38.79960 -74.69415 35892 ft 427 kts 232°
2026-05-06 21:48 38.75559 -74.74548 35886 ft 432 kts 231°
2026-05-06 21:49 38.70890 -74.79460 35888 ft 436 kts 229°
2026-05-06 21:49 38.66204 -74.84368 35889 ft 436 kts 229°
2026-05-06 21:50 38.61483 -74.89267 35894 ft 436 kts 229°
2026-05-06 21:50 38.56767 -74.94173 35893 ft 440 kts 229°
2026-05-06 21:51 38.52060 -74.99110 35896 ft 434 kts 231°
2026-05-06 21:51 38.47512 -75.04209 35909 ft 435 kts 230°
2026-05-06 21:52 38.42667 -75.08912 35909 ft 438 kts 227°
2026-05-06 21:52 38.37792 -75.13582 35912 ft 441 kts 226°
2026-05-06 21:53 38.32820 -75.18286 35911 ft 445 kts 226°
2026-05-06 21:53 38.27840 -75.23008 35910 ft 446 kts 226°
2026-05-06 21:54 38.22897 -75.27685 35908 ft 446 kts 226°
2026-05-06 21:54 38.17885 -75.32416 35896 ft 448 kts 226°
2026-05-06 21:55 38.12838 -75.37176 35892 ft 452 kts 226°
2026-05-06 21:55 38.07791 -75.41921 35892 ft 452 kts 226°
2026-05-06 21:56 38.03025 -75.46933 35898 ft 439 kts 232°
2026-05-06 21:56 37.98565 -75.52161 35877 ft 439 kts 231°
2026-05-06 21:57 37.94029 -75.57475 35904 ft 445 kts 231°
2026-05-06 21:57 37.89479 -75.62788 35903 ft 445 kts 231°
2026-05-06 21:58 37.84932 -75.68094 35901 ft 445 kts 231°
2026-05-06 21:58 37.80376 -75.73399 35905 ft 446 kts 231°
2026-05-06 21:59 37.75794 -75.78729 35904 ft 449 kts 232°
2026-05-06 21:59 37.71229 -75.84022 35904 ft 446 kts 232°
2026-05-06 22:00 37.66660 -75.89319 35898 ft 446 kts 232°
2026-05-06 22:00 37.62094 -75.94594 35889 ft 442 kts 232°
2026-05-06 22:01 37.59937 -75.97323 35290 ft 436 kts 239°
2026-05-06 22:01 37.58049 -76.00306 34719 ft 435 kts 238°
2026-05-06 22:01 37.56156 -76.03251 34148 ft 434 kts 237°
2026-05-06 22:01 37.54234 -76.06206 33516 ft 435 kts 237°
2026-05-06 22:02 37.52328 -76.09157 32931 ft 436 kts 237°
2026-05-06 22:02 37.50426 -76.12123 32310 ft 438 kts 236°
2026-05-06 22:02 37.48495 -76.15122 31676 ft 440 kts 236°
2026-05-06 22:02 37.46564 -76.18104 31025 ft 441 kts 235°
2026-05-06 22:03 37.44615 -76.21112 30368 ft 443 kts 234°
2026-05-06 22:03 37.42677 -76.24108 29659 ft 444 kts 234°
2026-05-06 22:03 37.40723 -76.27125 28988 ft 441 kts 234°
2026-05-06 22:03 37.38797 -76.30092 28330 ft 437 kts 234°
2026-05-06 22:04 37.36888 -76.33034 27682 ft 433 kts 234°
2026-05-06 22:04 37.34987 -76.35961 27028 ft 430 kts 234°
2026-05-06 22:04 37.33109 -76.38850 26379 ft 426 kts 235°
2026-05-06 22:04 37.31230 -76.41738 25726 ft 423 kts 235°
2026-05-06 22:05 37.29372 -76.44591 25105 ft 421 kts 235°
2026-05-06 22:05 37.27521 -76.47430 24472 ft 418 kts 235°
2026-05-06 22:05 37.25694 -76.50230 24040 ft 413 kts 236°
2026-05-06 22:05 37.23923 -76.52984 23923 ft 408 kts 236°
2026-05-06 22:06 37.22155 -76.55779 23916 ft 409 kts 236°
2026-05-06 22:06 37.20360 -76.58596 23915 ft 409 kts 236°
2026-05-06 22:06 37.18567 -76.61374 23897 ft 409 kts 236°
2026-05-06 22:06 37.16799 -76.64119 23903 ft 409 kts 236°
2026-05-06 22:07 37.15022 -76.66893 23904 ft 409 kts 236°
2026-05-06 22:07 37.13236 -76.69678 23904 ft 409 kts 236°
2026-05-06 22:07 37.11451 -76.72448 23904 ft 409 kts 236°
2026-05-06 22:07 37.09663 -76.75220 23907 ft 409 kts 236°
2026-05-06 22:08 37.07874 -76.77996 23908 ft 409 kts 236°
2026-05-06 22:08 37.06087 -76.80769 23909 ft 409 kts 236°
2026-05-06 22:08 37.04299 -76.83538 23911 ft 409 kts 236°
2026-05-06 22:08 37.02511 -76.86305 23912 ft 409 kts 236°
2026-05-06 22:09 37.00712 -76.89088 23730 ft 412 kts 236°
2026-05-06 22:09 36.98913 -76.91867 23095 ft 410 kts 236°
2026-05-06 22:09 36.97130 -76.94615 22732 ft 409 kts 236°
2026-05-06 22:09 36.95340 -76.97373 22383 ft 408 kts 236°
2026-05-06 22:10 36.93554 -77.00120 22080 ft 406 kts 236°
2026-05-06 22:10 36.91774 -77.02854 21772 ft 405 kts 236°
2026-05-06 22:10 36.90002 -77.05576 21470 ft 403 kts 236°
2026-05-06 22:10 36.88230 -77.08296 21152 ft 402 kts 236°
2026-05-06 22:11 36.86470 -77.10994 20854 ft 400 kts 236°
2026-05-06 22:11 36.84713 -77.13686 20539 ft 399 kts 236°
2026-05-06 22:11 36.82962 -77.16367 20229 ft 397 kts 236°
2026-05-06 22:11 36.81228 -77.19019 19927 ft 395 kts 236°
2026-05-06 22:12 36.79493 -77.21671 19634 ft 393 kts 236°
2026-05-06 22:12 36.77760 -77.24306 19318 ft 393 kts 236°
2026-05-06 22:12 36.75998 -77.26918 19038 ft 393 kts 236°
2026-05-06 22:12 36.74238 -77.29512 18744 ft 391 kts 236°
2026-05-06 22:13 36.72498 -77.32104 18450 ft 389 kts 236°
2026-05-06 22:13 36.70763 -77.34701 18157 ft 388 kts 236°
2026-05-06 22:13 36.69034 -77.37274 17827 ft 387 kts 236°
2026-05-06 22:13 36.67310 -77.39829 17540 ft 385 kts 236°
2026-05-06 22:14 36.65588 -77.42383 17306 ft 386 kts 236°
2026-05-06 22:14 36.63867 -77.44938 16988 ft 383 kts 236°
2026-05-06 22:14 36.62157 -77.47473 16688 ft 382 kts 235°
2026-05-06 22:14 36.60456 -77.49991 16400 ft 380 kts 235°
2026-05-06 22:15 36.59329 -77.51658 16201 ft 379 kts 235°
2026-05-06 22:15 36.57635 -77.54166 15889 ft 378 kts 235°
2026-05-06 22:15 36.55944 -77.56664 15606 ft 378 kts 235°
2026-05-06 22:15 36.53702 -77.59975 15233 ft 376 kts 235°
2026-05-06 22:16 36.52026 -77.62447 14941 ft 373 kts 234°
2026-05-06 22:16 36.50896 -77.64114 14752 ft 372 kts 234°
2026-05-06 22:16 36.49231 -77.66568 14460 ft 371 kts 234°
2026-05-06 22:16 36.47572 -77.69011 14180 ft 370 kts 234°
2026-05-06 22:17 36.45915 -77.71449 13889 ft 368 kts 234°
2026-05-06 22:17 36.44263 -77.73879 13594 ft 366 kts 234°
2026-05-06 22:17 36.42621 -77.76291 13303 ft 365 kts 233°
2026-05-06 22:17 36.40983 -77.78696 13022 ft 364 kts 233°
2026-05-06 22:18 36.39354 -77.81088 12743 ft 363 kts 233°
2026-05-06 22:18 36.37724 -77.83477 12463 ft 362 kts 233°
2026-05-06 22:18 36.36099 -77.85859 12188 ft 362 kts 233°
2026-05-06 22:18 36.34492 -77.88211 11928 ft 361 kts 233°
2026-05-06 22:19 36.32862 -77.90595 11641 ft 354 kts 233°
2026-05-06 22:19 36.31303 -77.92872 11361 ft 346 kts 232°
2026-05-06 22:19 36.29763 -77.95122 11096 ft 339 kts 232°
2026-05-06 22:19 36.28253 -77.97329 10853 ft 332 kts 232°
2026-05-06 22:20 36.26778 -77.99481 10593 ft 325 kts 232°
2026-05-06 22:20 36.25328 -78.01595 10341 ft 319 kts 232°
2026-05-06 22:20 36.23899 -78.03678 10102 ft 314 kts 232°
2026-05-06 22:20 36.22703 -78.05863 9858 ft 305 kts 246°
2026-05-06 22:21 36.21830 -78.08253 9583 ft 301 kts 248°
2026-05-06 22:21 36.20997 -78.10586 9311 ft 290 kts 247°
2026-05-06 22:21 36.20249 -78.12842 9055 ft 277 kts 249°
2026-05-06 22:21 36.19514 -78.14994 8824 ft 267 kts 248°
2026-05-06 22:22 36.18805 -78.17067 8600 ft 256 kts 248°
2026-05-06 22:22 36.18133 -78.19073 8373 ft 247 kts 249°
2026-05-06 22:22 36.17500 -78.20971 8209 ft 231 kts 249°
2026-05-06 22:22 36.16907 -78.22736 8034 ft 212 kts 248°
2026-05-06 22:23 36.16364 -78.24351 7841 ft 196 kts 249°
2026-05-06 22:23 36.15859 -78.25853 7675 ft 184 kts 249°
2026-05-06 22:23 36.15349 -78.27378 7557 ft 202 kts 249°
2026-05-06 22:23 36.14892 -78.29052 7376 ft 205 kts 259°
2026-05-06 22:24 36.14603 -78.30779 7220 ft 206 kts 257°
2026-05-06 22:24 36.14292 -78.32500 7025 ft 203 kts 257°
2026-05-06 22:24 36.13986 -78.34192 6858 ft 202 kts 257°
2026-05-06 22:24 36.13681 -78.35899 6484 ft 201 kts 257°
2026-05-06 22:25 36.13380 -78.37583 6094 ft 201 kts 256°
2026-05-06 22:25 36.13076 -78.39275 5684 ft 201 kts 256°
2026-05-06 22:25 36.12774 -78.40960 5268 ft 200 kts 256°
2026-05-06 22:25 36.12354 -78.42576 4861 ft 197 kts 244°
2026-05-06 22:26 36.11677 -78.44046 4480 ft 197 kts 239°
2026-05-06 22:26 36.10927 -78.45486 4123 ft 200 kts 237°
2026-05-06 22:26 36.10195 -78.46940 3867 ft 198 kts 238°
2026-05-06 22:26 36.09479 -78.48407 3802 ft 201 kts 238°
2026-05-06 22:27 36.08757 -78.49881 3725 ft 203 kts 238°
2026-05-06 22:27 36.08029 -78.51364 3609 ft 204 kts 238°
2026-05-06 22:27 36.07311 -78.52861 3491 ft 203 kts 238°
2026-05-06 22:27 36.06589 -78.54392 3367 ft 202 kts 238°
2026-05-06 22:28 36.05867 -78.55850 3243 ft 202 kts 236°
2026-05-06 22:28 36.05226 -78.57392 3129 ft 202 kts 241°
2026-05-06 22:28 36.04494 -78.58882 3000 ft 203 kts 232°
2026-05-06 22:28 36.03560 -78.60179 2877 ft 203 kts 226°
2026-05-06 22:29 36.02571 -78.61435 2750 ft 203 kts 225°
2026-05-06 22:29 36.01583 -78.62665 2639 ft 202 kts 225°
2026-05-06 22:29 36.00589 -78.63899 2511 ft 204 kts 224°
2026-05-06 22:29 35.99590 -78.65140 2396 ft 203 kts 224°
2026-05-06 22:30 35.98598 -78.66370 2264 ft 203 kts 225°
2026-05-06 22:30 35.97602 -78.67605 2203 ft 201 kts 224°
2026-05-06 22:30 35.96608 -78.68835 2219 ft 203 kts 225°
2026-05-06 22:30 35.95629 -78.70052 2132 ft 197 kts 224°
2026-05-06 22:31 35.94709 -78.71196 1885 ft 177 kts 224°
2026-05-06 22:31 35.93876 -78.72231 1686 ft 166 kts 223°
2026-05-06 22:31 35.93062 -78.73241 1466 ft 165 kts 224°
2026-05-06 22:31 35.92269 -78.74221 1258 ft 154 kts 225°
2026-05-06 22:32 35.91508 -78.75157 942 ft 163 kts 224°
2026-05-06 22:32 35.90702 -78.76146 819 ft 160 kts 225°
2026-05-06 22:32 35.89919 -78.77109 549 ft 155 kts 225°
2026-05-06 22:32 35.89185 -78.78034 410 ft 144 kts 225°
2026-05-06 22:33 35.88577 -78.78798 399 ft 99 kts 225°
2026-05-06 22:33 35.88196 -78.79273 399 ft 58 kts 225°
2026-05-06 22:33 35.87976 -78.79553 399 ft 40 kts 226°
2026-05-06 22:33 35.87856 -78.79698 402 ft 16 kts 215°
2026-05-06 22:34 35.87753 -78.79712 400 ft 9 kts 155°
2026-05-06 22:34 35.87742 -78.79704 399 ft 0 kts 148°
2026-05-06 22:34 35.87740 -78.79703 399 ft 2 kts 148°
2026-05-06 22:34 35.87728 -78.79671 398 ft 4 kts 83°
2026-05-06 22:35 35.87756 -78.79627 397 ft 9 kts 47°
2026-05-06 22:35 35.87801 -78.79566 398 ft 10 kts 47°
2026-05-06 22:35 35.87848 -78.79507 402 ft 10 kts 44°
2026-05-06 22:35 35.87904 -78.79440 400 ft 13 kts 44°
2026-05-06 22:36 35.87975 -78.79356 399 ft 16 kts 44°
2026-05-06 22:36 35.88061 -78.79251 399 ft 19 kts 45°
2026-05-06 22:36 35.88159 -78.79126 397 ft 22 kts 46°
2026-05-06 22:36 35.88275 -78.78985 398 ft 24 kts 43°
2026-05-06 22:37 35.88390 -78.78843 397 ft 23 kts 46°
2026-05-06 22:37 35.88488 -78.78716 397 ft 15 kts 47°
2026-05-06 22:37 35.88510 -78.78648 399 ft 7 kts 84°
2026-05-06 22:37 35.88518 -78.78582 400 ft 4 kts 53°
2026-05-06 22:38 35.88549 -78.78536 400 ft 10 kts 50°
2026-05-06 22:38 35.88608 -78.78461 399 ft 15 kts 45°
2026-05-06 22:38 35.88688 -78.78365 395 ft 14 kts 44°
2026-05-06 22:38 35.88738 -78.78299 400 ft 5 kts 64°
2026-05-06 22:39 35.88734 -78.78265 398 ft 6 kts 118°
2026-05-06 22:39 35.88723 -78.78225 401 ft 3 kts 76°
2026-05-06 22:39 35.88756 -78.78173 399 ft 14 kts 49°
2026-05-06 22:39 35.88782 -78.78110 399 ft 4 kts 104°
2026-05-06 22:40 35.88767 -78.78087 400 ft 5 kts 136°
2026-05-06 22:40 35.88741 -78.78056 400 ft 2 kts 135°
2026-05-06 22:40 35.88734 -78.78047 399 ft 0 kts 135°